Regional Weather Roundup
Issued by NWS Little Rock, AR

Home | Current Version | Previous Version | Text Only | Print | Product List | Glossary Off
Versions: 1 2 3 4 5 6 7 8 9 10 11 12 13 14 15 16 17 18 19 20 21 22 23 24 25 26 27 28 29 30 31 32 33 34 35 36 37 38 39 40 41 42 43 44 45

000
ASUS44 KLZK 311605
RWRLZK

WEATHER ROUNDUP FOR ARKANSAS
NATIONAL WEATHER SERVICE LITTLE ROCK AR
1100 AM CDT MON AUG 31 2015

NOTE: "FAIR" INDICATES FEW OR NO CLOUDS BELOW 12,000 FEET WITH NO
SIGNIFICANT WEATHER AND/OR OBSTRUCTIONS TO VISIBILITY.

ARZ001-003-010-029-311700-
NORTHWEST ARKANSAS

CITY           SKY/WX    TMP DP  RH WIND       PRES   REMARKS
FAYETTEVILLE   SUNNY     82  70  66 S14       30.09R HX  86
FORT SMITH     MOSUNNY   82  70  66 S3        30.07R HX  86
BENTONVILLE    SUNNY     82  66  57 S9        30.09S HX  85
ROGERS         SUNNY     83  68  60 S15       30.10R HX  86
SILOAM SPGS    SUNNY     82  66  57 S12       30.07R HX  85
HIGHFILL       SUNNY     84  70  62 SW13      30.08R HX  88
SPRINGDALE     SUNNY     82  68  61 S12       30.11R HX  85
$$

ARZ004-005-016-311700-
NORTH CENTRAL ARKANSAS

CITY           SKY/WX    TMP DP  RH WIND       PRES   REMARKS
BATESVILLE     SUNNY     81  72  74 CALM      30.10R
FLIPPIN        SUNNY     84  66  54 S3        30.08R HX  86
MTN HOME       SUNNY     82  70  66 S6        30.09S HX  86
$$

ARZ040-041-311700-
WEST CENTRAL ARKANSAS

CITY           SKY/WX    TMP DP  RH WIND       PRES   REMARKS
MENA           SUNNY     86  70  58 CALM      30.10S HX  90
MOUNT IDA      SUNNY     85  67  54 CALM      30.07R HX  87
$$

ARZ009-017-025-026-028-311700-
NORTHEAST ARKANSAS

CITY           SKY/WX    TMP DP  RH WIND       PRES   REMARKS
JONESBORO      SUNNY     80  70  71 E5        30.10S
NEWPORT        SUNNY     82  71  69 CALM      30.10F HX  86
WALNUT RIDGE   SUNNY     79  70  73 SE5       30.10S
BLYTHEVILLE    SUNNY     82  71  69 S7        30.11F HX  86
$$

ARZ022-023-033-042-044-311700-
CENTRAL ARKANSAS

CITY           SKY/WX    TMP DP  RH WIND       PRES   REMARKS
LITTLE ROCK    MOSUNNY   85  70  60 E5        30.08S HX  89
N LITTLE ROCK  MOSUNNY   83  73  72 E5        30.08S HX  89
JACKSONVILLE   MOSUNNY   82  70  67 VRB2      30.08S HX  86
SEARCY         MOSUNNY   81  72  74 E3        30.10S HX  85
HOT SPRINGS    SUNNY     87  68  52 W3        30.08S HX  90
RUSSELLVILLE   SUNNY     84  70  62 CALM      30.08R HX  88
$$

ARZ036-311700-
EAST ARKANSAS

CITY           SKY/WX    TMP DP  RH WIND       PRES   REMARKS
WEST MEMPHIS   SUNNY     82  71  69 S6        30.09S HX  86
$$

ARZ050-053-066-070-073-311700-
SOUTHWEST ARKANSAS

CITY           SKY/WX    TMP DP  RH WIND       PRES   REMARKS
ARKADELPHIA    FAIR      89  70  53 CALM      30.07S HX  94
CAMDEN         SUNNY     88  68  51 CALM      30.07S HX  91
TEXARKANA      SUNNY     86  64  47 NW3       30.08R HX  87
EL DORADO      SUNNY     86  66  51 SW7       30.09R HX  88
DE QUEEN       SUNNY     86  69  56 S3        30.06R HX  90
$$

ARZ056-057-069-311700-
SOUTHEAST ARKANSAS

CITY           SKY/WX    TMP DP  RH WIND       PRES   REMARKS
PINE BLUFF     SUNNY     84  67  56 VRB3      30.08R HX  86
STUTTGART      SUNNY     82  70  65 CALM      30.08S HX  86
MONTICELLO     SUNNY     87  70  56 VRB3      30.08R HX  92

$$




USA.gov is the U.S. government's official web portal to all federal, state and local government web resources and services.